Find Starlink 33808

NORAD ID: 63767 Int'l Des: 2025-089 Owner: SPXS Country: US Constellation: starlink operational
LEOCIRCULAR

Live-Position

3D-Globus wird geladen...

Über Starlink 33808

Beschreibung wird geladen...

Nächste Überflüge

Passes for default location (London). Set your location on the main map for personalized predictions.

Höhenverlauf

Loading altitude history...

Zweizeiliger Elementsatz

1 63767U 25089S 26127.90431723 .00016634 00000-0 61265-3 0 9993
2 63767 43.0025 70.8221 0001523 273.5038 86.5640 15.27579477 58011
Epoch: 7. Mai 2026 • Age: 10 hours

Aktueller Status

Höhe 487.0 km
Geschwindigkeit 7.63 km/s
Subsatellitenpunkt 42.55°N, 168.45°E
Startdatum 29. Apr. 2025
Alter 1 years
Typ internet

Technische Details

Klassifizierung Payload
Masse 575.00 kg
Trockenmasse 530.00 kg
Gesamtmasse 575.00 kg
Länge 0.30 m
Durchmesser 4.10 m
Spannweite 29.00 m
Form Box + pan
Hersteller SPXS
Bus-Typ Starlink V2MO
Phasenstatus In Orbit
Besitzer/Staat SPXS/US

Most Searched